Location: Cruquius
(52.3348°N, 4.6319°E)
Time: 08:57:31
(UTC+00:00)

SL-24 R/B - RUBIN 2 - Pass Details

Date: 12 May 2021
Orbit: 583 x 1013 km, 64.6° (Epoch: 15 June)

Event Time Altitude Azimuth Distance (km) Brightness Sun altitude
Rises 21:33:45 0° 316° (NW) 3,468 9.0 -14.3°
Reaches altitude 10° 21:36:23 10° 315° (NW) 2,459 7.9 -14.5°
Maximum altitude 21:42:02 78° 230° (SW) 784 4.0 -15.0°
Enters shadow 21:45:03 25° 147° (SSE) 1,451 4.8 -15.2°
